This is the latest recevied weather packets stored in our database for station/object K7ZQU-7. If no packets are shown the sender has not sent any weather packets the latest 10 day(s).
| Time | Temp. | Humidity | Pressure | Rain* | Wind** | Luminosity | Snow |
|---|---|---|---|---|---|---|---|
| 1777832210 | 17.78° C | 39% | 1015.1 hPa | 0 mm | 2.24 m/s, 68° | - | - |
| 1777831911 | 17.78° C | 41% | 1015.1 hPa | 0 mm | 1.79 m/s, 110° | - | - |
| 1777830712 | 17.22° C | 42% | 1015.1 hPa | 0 mm | 1.79 m/s, 86° | - | - |
| 1777830413 | 17.22° C | 41% | 1015 hPa | 0 mm | 1.34 m/s, 87° | - | - |
| 1777830114 | 17.22° C | 41% | 1015 hPa | 0 mm | 1.79 m/s, 114° | - | - |
| 1777829514 | 17.22° C | 43% | 1014.9 hPa | 0 mm | 0.89 m/s, 224° | - | - |
| 1777829215 | 17.22° C | 41% | 1014.9 hPa | 0 mm | 1.34 m/s, 65° | - | - |
| 1777828616 | 17.22° C | 40% | 1014.7 hPa | 0 mm | 2.68 m/s, 143° | - | - |
| 1777828016 | 17.22° C | 41% | 1014.7 hPa | 0 mm | 1.79 m/s, 114° | - | - |
| 1777827768 | 16.67° C | 41% | 1014.7 hPa | 0 mm | 0.89 m/s, 127° | - | - |
| 1777827418 | 16.67° C | 42% | 1014.7 hPa | 0 mm | 1.34 m/s, 96° | - | - |
| 1777827119 | 16.67° C | 42% | 1014.7 hPa | 0 mm | 1.79 m/s, 125° | - | - |
| 1777826518 | 16.67° C | 43% | 1014.6 hPa | 0 mm | 2.68 m/s, 35° | - | - |
| 1777826219 | 16.67° C | 43% | 1014.6 hPa | 0 mm | 2.68 m/s, 195° | - | - |
| 1777825920 | 16.11° C | 43% | 1014.6 hPa | 0 mm | 2.24 m/s, 169° | - | - |
| 1777825621 | 16.11° C | 44% | 1014.6 hPa | 0 mm | 2.24 m/s, 32° | - | - |
| 1777825020 | 16.11° C | 44% | 1014.6 hPa | 0 mm | 1.79 m/s, 104° | - | - |
| 1777824721 | 15.56° C | 45% | 1014.6 hPa | 0 mm | 1.79 m/s, 222° | - | - |
| 1777824422 | 15.56° C | 45% | 1014.6 hPa | 0 mm | 1.79 m/s, 20° | - | - |
| 1777824123 | 15.56° C | 45% | 1014.5 hPa | 0 mm | 1.79 m/s, 77° | - | - |
| 1777823821 | 15.56° C | 47% | 1014.6 hPa | 0 mm | 0.89 m/s, 128° | - | - |
| 1777823522 | 15.56° C | 46% | 1014.5 hPa | 0 mm | 1.79 m/s, 203° | - | - |
| 1777823223 | 15.56° C | 48% | 1014.5 hPa | 0 mm | 0.89 m/s, 122° | - | - |
| 1777822924 | 15° C | 47% | 1014.5 hPa | 0 mm | 1.79 m/s, 94° | - | - |
| 1777822625 | 15° C | 47% | 1014.5 hPa | 0 mm | 1.34 m/s, 186° | - | - |
* Rain latest hour (hover to see other rain measurements)
** Current wind speed in m/s (hover to see current wind gust speed)